Weather History for Acapulco, Mexico

Change the Weather History Date:

Thursday, June 14, 2012

  Actual Average Record
Temperature  
Mean Temperature 84 °F -  
Max Temperature 93 °F 90 °F 95 °F (2014)
Min Temperature 75 °F 76 °F 73 °F (2000)
Cooling Degree Days 19    
Growing Degree Days 34 (Base 50)    
Moisture  
Dew Point 75 °F    
Average Humidity 72    
Maximum Humidity 86    
Minimum Humidity 59    
Precipitation  
Precipitation 0.00 in 0.32 in - ()
Sea Level Pressure  
Sea Level Pressure 29.83 in    
Wind  
Wind Speed 3 mph ()    
Max Wind Speed 17 mph    
Max Gust Speed -    
Visibility 8.9 miles    
Events      
Averages and records for this station are not official NWS values.
T = Trace of Precipitation, MM = Missing Value Source: Averaged Metar Reports

Daily Weather History Graph

Daily Weather History Graph

Search for Another Location

Airport:

Trip Planner

Search our weather history database for the weather conditions in past years. The results will help you decide how hot, cold, wet, or windy it might be!

Date:

Astronomy

Jun. 14, 2012 Rise Set
Actual Time 7:05 AM CDT 8:13 PM CDT
Civil Twilight 6:41 AM CDT 8:37 PM CDT
Nautical Twilight 6:13 AM CDT 9:05 PM CDT
Astronomical Twilight 5:44 AM CDT 9:34 PM CDT
Moon 3:22 AM CDT (6/14) 4:19 PM CDT (6/14)
Length of Visible Light 13h 55m
Length of Day
13h 07m
Waning Crescent, 21% of the Moon is Illuminated
Jun 14
Waning Crescent
Jun 19
New
Jun 26
First Quarter
Jul 3
Full
Jul 10
Last Quarter

Hourly Weather History & Observations

Time (CDT) Temp. Heat Index Dew Point Humidity Pressure Visibility Wind Dir Wind Speed Gust Speed Precip Events Conditions
12:42 AM 77.0 °F - 71.6 °F 83% 29.88 in 8.0 mi Calm Calm - N/A   Overcast
12:45 AM 80 °F - 73 °F 73% 29.86 in 6 mi NNE 4.5 mph - -   Partly Cloudy
1:43 AM 77.0 °F - 71.6 °F 83% 29.88 in 8.0 mi Calm Calm - N/A   Overcast
2:46 AM 77.0 °F - 71.6 °F 83% 29.84 in 8.0 mi Calm Calm - N/A   Overcast
3:45 AM 77 °F - 73 °F 83% 29.82 in 6 mi NNW 2.2 mph - -   Scattered Clouds
3:47 AM 77.0 °F - 71.6 °F 83% 29.82 in 8.0 mi Calm Calm - N/A   Overcast
4:47 AM 77.0 °F - 71.6 °F 83% 29.81 in 8.0 mi Calm Calm - N/A   Mostly Cloudy
5:55 AM 77.0 °F - 71.6 °F 83% 29.81 in 8.0 mi Calm Calm - N/A   Mostly Cloudy
6:45 AM 76 °F - 72 °F 86% 29.80 in 11 mi NW 2.2 mph - -   Partly Cloudy
6:45 AM 78.8 °F - 71.6 °F 78% 29.82 in 10.0 mi Calm Calm - N/A   Partly Cloudy
7:44 AM 77.0 °F - 71.6 °F 83% 29.83 in 8.0 mi Calm Calm - N/A   Clear
8:44 AM 80.6 °F 84.6 °F 71.6 °F 74% 29.85 in 10.0 mi Calm Calm - N/A   Clear
9:41 AM 82.4 °F 88.2 °F 73.4 °F 74% 29.85 in 10.0 mi Calm Calm - N/A   Scattered Clouds
9:50 AM 85 °F - 74 °F 61% 29.87 in 12 mi NNW 2.2 mph - -  
10:44 AM 87.8 °F 97.6 °F 75.2 °F 66% 29.87 in 8.0 mi Calm Calm - N/A   Scattered Clouds
11:46 AM 87.8 °F 97.6 °F 75.2 °F 66% 29.87 in 8.0 mi SW 8.1 mph - N/A   Scattered Clouds
12:44 PM 89.6 °F 99.8 °F 75.2 °F 62% 29.85 in 8.0 mi WSW 6.9 mph - N/A   Scattered Clouds
12:50 PM 90 °F - 77 °F 59% 29.85 in 12 mi West 6.7 mph - -   Scattered Clouds
1:47 PM 89.6 °F 99.8 °F 75.2 °F 62% 29.83 in 8.0 mi WSW 6.9 mph - N/A   Scattered Clouds
2:43 PM 91.4 °F 105.1 °F 77.0 °F 63% 29.82 in 10.0 mi SW 11.5 mph - N/A   Clear
3:45 PM 91.4 °F 105.1 °F 77.0 °F 63% 29.82 in 10.0 mi WSW 11.5 mph - N/A   Clear
3:50 PM 90 °F - 82 °F 70% 29.81 in 12 mi SW 6.7 mph - -   Scattered Clouds
4:44 PM 91.4 °F 105.1 °F 77.0 °F 63% 29.78 in 10.0 mi WSW 17.3 mph - N/A   Scattered Clouds
5:43 PM 89.6 °F 99.8 °F 75.2 °F 62% 29.78 in 10.0 mi WSW 13.8 mph - N/A   Scattered Clouds
6:42 PM 89.6 °F 102.2 °F 77.0 °F 66% 29.76 in 10.0 mi WSW 13.8 mph - N/A   Scattered Clouds
6:55 PM 89 °F - 81 °F 72% 29.79 in 12 mi West 4.5 mph - -   Scattered Clouds
7:46 PM 87.8 °F 97.6 °F 75.2 °F 66% 29.80 in 8.0 mi SW 6.9 mph - N/A   Scattered Clouds
8:44 PM 87.8 °F 97.6 °F 75.2 °F 66% 29.83 in 8.0 mi WSW 5.8 mph - N/A   Scattered Clouds
9:46 PM 86.0 °F 96.9 °F 77.0 °F 74% 29.86 in 8.0 mi Calm Calm - N/A   Scattered Clouds
9:55 PM 84 °F - 77 °F 74% 29.85 in 6 mi West 2.2 mph - -   Partly Cloudy
10:45 PM 86.0 °F 96.9 °F 77.0 °F 74% 29.85 in 8.0 mi Calm Calm - N/A   Mostly Cloudy
11:45 PM 86.0 °F 96.9 °F 77.0 °F 74% 29.85 in 8.0 mi Calm Calm - N/A   Mostly Cloudy